www.pogodaiklimat.ru

Погода и климат >> Архив погоды >> Туркменистан >> Байрамалы


АРХИВ ПОГОДЫ в Байрамалы

Время (UTC), дата Ветер
(напр.,м/с)
 
Видим.   Явления Облачность Т
(С)
Тd
(С)
f
(%)
Тe
(С)
Тes
(С)
Комфортность P
(гПа)
Po
(гПа)
Тmin
(С)
Tmax
(С)
R
(мм)
R24
(мм)
S
(см)
21 10.06 штиль 0 4000 м ясно +21.2 +5.0 35 +22 +22 комфорт 1018.0 990.4
00 11.06 С 1 4000 м ясно +19.7 +3.0 33 +21 +21 комфорт 1018.1 990.4
03 11.06 СВ 1 4000 м ясно +20.7 +6.2 39 +23 +28 комфорт 1018.4 990.8 +18.3
06 11.06 СВ 2 4000 м ясно +27.2 +3.6 22 +26 +43 жарко 1018.3 991.2 +18.3
09 11.06 С 2 4000 м ясно +30.0 +3.4 18 +28 +47 жарко 1017.4 990.6
12 11.06 СВ 1 4000 м ясно +30.6 +3.2 17 +28 +37 жарко 1015.8 989.1
15 11.06 С 1 4000 м ясно +28.2 +3.6 21 +27 +27 жарко 1015.3 988.4 +31.4
18 11.06 штиль 0 4000 м ясно +23.5 +7.3 35 +24 +24 комфорт 1017.1 989.7 +31.4
21 11.06 штиль 0 4000 м ясно +21.0 +6.4 39 +22 +22 комфорт 1015.6 988.0
00 12.06 штиль 0 4000 м ясно +17.0 +8.6 58 +17 +17 1015.0 987.1
03 12.06 штиль 0 4000 м ясно +24.1 +6.5 32 +24 +30 комфорт 1015.2 987.9 +16.8
06 12.06 С 1 4000 м ясно +29.9 +5.9 22 +28 +49 жарко 1014.3 987.6 +16.8
09 12.06 В 2 4000 м ясно +33.1 +5.8 18 +31 +50 жарко 1012.0 985.5
12 12.06 С 1 4000 м ясно +33.5 +5.3 17 +31 +40 жарко 1010.3 984.0
15 12.06 штиль 0 4000 м ясно +30.6 +8.4 25 +30 +30 жарко 1009.8 983.2 +34.1
18 12.06 штиль 0 4000 м ясно +26.3 +6.1 28 +26 +26 жарко 1010.4 983.4 +34.1
21 12.06 СВ 1 4000 м ясно +23.6 +4.1 28 +23 +23 комфорт 1009.7 982.5
00 13.06 В 1 4000 м ясно +21.1 +5.9 37 +22 +22 комфорт 1010.1 982.6
03 13.06 штиль 0 4000 м ясно +25.0 +7.1 32 +25 +31 комфорт 1009.9 982.8 +20.0
06 13.06 СВ 1 4000 м ясно +32.2 +7.0 21 +31 +51 опасность
солнечного
удара
1009.2 982.7 +20.0
09 13.06 штиль 0 4000 м ясно +34.9 +5.1 16 +32 +59 опасность
солнечного
удара
1007.6 981.5
12 13.06 штиль 0 4000 м ясно +35.8 +6.1 16 +33 +44 жарко 1005.7 979.6
15 13.06 штиль 0 4000 м 4/0
[Ci]
+32.4 +7.8 22 +31 +31 жарко 1005.4 979.2 +36.8
18 13.06 С 1 4000 м ясно +27.6 +6.7 27 +27 +27 жарко 1006.3 979.5 +36.8
21 13.06 штиль 0 4000 м 3/0
[Ac trans]
+25.2 +8.5 35 +26 +26 жарко 1006.0 979.1
00 14.06 штиль 0 4000 м ясно +19.7 +11.0 57 +21 +21 комфорт 1006.6 979.2
03 14.06 штиль 0 4000 м ясно +24.6 +12.0 45 +26 +32 жарко 1007.1 980.1 +18.1
06 14.06 штиль 0 4000 м ясно +35.2 +6.2 17 +33 +56 опасность
солнечного
удара
1006.7 980.6 +18.1
09 14.06 СЗ 1 4000 м ясно +37.2 +6.7 15 +35 +58 опасность
солнечного
удара
1006.2 980.2
12 14.06 СЗ 2 4000 м ясно +37.9 +4.0 12 +35 +42 очень
жарко
1005.1 979.3
15 14.06 штиль 0 4000 м ясно +34.0 +7.3 19 +32 +32 жарко 1005.5 979.3 +38.5
18 14.06 штиль 0 4000 м ясно +25.9 +12.9 45 +28 +28 жарко 1006.6 979.8 +38.5
21 14.06 штиль 0 4000 м ясно +23.6 +10.6 44 +25 +25 комфорт 1006.8 979.7
00 15.06 З 2 4000 м 3/0
[Ac trans]
+23.8 +8.5 38 +24 +24 комфорт 1007.2 980.1
03 15.06 Ю 1 4000 м 8/0
[Ac trans]
+27.8 +11.4 36 +29 +31 жарко 1008.0 981.2 +21.6
06 15.06 С 1 4000 м ясно +34.2 +10.5 24 +34 +54 опасность
солнечного
удара
1008.5 982.4 +21.6
09 15.06 штиль 0 4000 м ясно +38.2 +5.5 13 +35 +62 опасность
солнечного
удара
1008.2 982.3
12 15.06 С 2 4000 м ясно +37.6 +4.8 13 +35 +42 очень
жарко
1008.2 982.3
15 15.06 СВ 1 4000 м ясно +34.3 +7.6 19 +32 +32 жарко 1007.9 981.8 +39.0
18 15.06 штиль 0 4000 м ясно +29.4 +15.5 43 +32 +32 душно 1009.6 983.0 +39.0
21 15.06 штиль 0 4000 м ясно +25.2 +15.5 55 +28 +28 жарко 1010.0 983.0
00 16.06 С 1 4000 м ясно +23.6 +14.5 57 +26 +26 жарко 1010.1 983.0
03 16.06 штиль 0 4000 м ясно +25.4 +14.1 50 +28 +34 жарко 1011.2 984.2 +22.5
06 16.06 штиль 0 4000 м 3/3 1000 м
[Sc]
+32.8 +9.5 24 +32 +48 жарко 1010.9 984.5 +22.5
09 16.06 С 1 4000 м ясно +35.6 +5.0 15 +33 +56 опасность
солнечного
удара
1009.9 983.8
12 16.06 СЗ 2 4000 м ясно +36.0 +3.2 13 +33 +40 жарко 1008.6 982.5
15 16.06 штиль 0 4000 м ясно +33.1 +6.4 19 +31 +31 жарко 1008.4 982.1 +36.8
18 16.06 СВ 1 4000 м ясно +28.4 +4.0 21 +27 +27 жарко 1008.9 982.1 +36.8
21 16.06 СВ 2 4000 м ясно +25.0 +2.1 22 +24 +24 комфорт 1009.1 982.1
00 17.06 штиль 0 4000 м ясно +22.0 +2.7 28 +22 +22 комфорт 1007.8 980.5
03 17.06 В 2 4000 м ясно +24.8 +6.2 30 +25 +29 комфорт 1009.2 982.2 +21.6
06 17.06 В 1 4000 м ясно +32.0 +6.5 20 +30 +51 опасность
солнечного
удара
1008.6 982.2 +21.6
09 17.06 С 1 4000 м ясно +35.9 +5.0 15 +33 +56 опасность
солнечного
удара
1007.7 981.6
12 17.06 С 1 4000 м ясно +36.7 +5.3 14 +34 +43 очень
жарко
1006.1 980.1
15 17.06 штиль 0 4000 м ясно +33.6 +7.4 20 +32 +32 жарко 1005.8 979.6 +37.6
18 17.06 штиль 0 4000 м ясно +28.8 +9.5 30 +29 +29 жарко 1006.7 980.0 +37.6

 

Местоположение метеостанции Байрамалы (Ахалский велаят, Туркменистан): широта 37.60 долгота 62.18 высота над уровнем моря 240 м.

В архиве по умолчанию представлена погода в Байрамалы за последнюю неделю. Архивные данные за месяц целиком и за предыдущие месяцы, начиная с января 2011 года, Вы можете получить, выбрав интересующий диапазон дат из раскрывающегося списка и нажав кнопку "Ввод!".


*Определитесь, кто Вы:
робот инопланетянин человек

Внимание! Время в таблицах - всемирное. Для получения местного времени необходимо прибавить поправку, которая равна 5 ч.

Смотрите также архив погоды в соседних городах и на ближайших метеорологических станциях:

Погода в Елетене (Марыйский велаят, Туркменистан) (40 км)
Погода в Багтыярлыке (Марыйский велаят, Туркменистан) (76 км)
Погода в Сарагте (Ахалский велаят, Туркменистан) (146 км)
Погода в Теджене (Ахалский велаят, Туркменистан) (149 км)
Погода в Серахсе (Иран) (149 км)
Погода в Тагтабазаре (Марыйский велаят, Туркменистан) (195 км)
Погода в Туркменабаде (Лебапский велаят, Туркменистан) (206 км)
Погода в Бурдалыке (Лебапский велаят, Туркменистан) (215 км)
Погода в Каке (Ахалский велаят, Туркменистан) (227 км)
Погода в Каракуле (Бухарская область, Узбекистан) (256 км)

Пояснения к столбцам:

Ветер - указаны скорость ветра в м/с - средняя за 10 мин, порывы в срок и между сроками (в фигурных скобках) и направление, откуда дует ветер: С - северный, СВ - северо-восточный, В - восточный, ЮВ - юго-восточный, Ю - южный, ЮЗ - юго-западный, З - западный, СЗ - северо-западный.
Видимость - горизонтальная дальность видимости в метрах или километрах. При видимости от 1 до 10 км при отсутствии осадков обычно наблюдается дымка, при ухудшении видимости до 1 км и менее - туман. В сухую погоду видимость может ухудшаться дымом, пылью или мглою.
Явления - указаны атмосферные явления, наблюдавшиеся в срок или в последний час перед сроком; фигурными скобками обозначены явления, наблюдавшиеся между сроками (за 1-3 часа до срока); квадратными скобками обозначены град или гололедные отложения с указанием их диаметра в мм.
Облачность - указаны через наклонную черту общая и нижняя облачность в баллах и высота нижней границы облаков в метрах; квадратными скобками обозначены формы облаков: Ci - перистые, Cs - перисто-слоистые, Cc - перисто-кучевые, Ac - высококучевые, As - высокослоистые, Sc - слоисто-кучевые, Ns - слоисто-дождевые, Cu - кучевые, Cb - кучево-дождевые. Подробнее классификацию облаков см. в Атласе облаков (PDF).
T - Температура воздуха - температура, измеренная на высоте 2 м над землей.
Td - Температура точки росы - температура, при понижении до которой содержащийся в воздухе водяной пар достигнет насыщения.
f - Относительная влажность воздуха - влажноcть воздуха, измеренная на высоте 2 м над землей.
Te - Эффективная температура - температура, которую ощущает одетый по сезону человек в тени. Характеристика душности погоды. При расчете учитывается влияние влажности воздуха и скорости ветра на теплоощущения человека.
Tes - Эффективная температура на солнце - температура, которую ощущает человек, с поправкой на солнечный нагрев. Характеристика знойности погоды. Зависит от высоты солнца над горизонтом, облачности и скорости ветра. Ночью, в пасмурную погоду, а также при ветре 12 м/с и более поправка равна нулю.
P - Атмосферное давление - приведенное к уровню моря атмосферное давление.
Po - Атмосферное давление - измеренное на уровне метеостанции атмосферное давление.
Tmin - Минимальная температура - минимум температуры воздуха на высоте 2 м над землей.
Tmax - Максимальная температура - максимум температуры воздуха на высоте 2 м над землей.
R - Количество осадков - Количество выпавших осадков за период времени, мм. При наведении курсора мыши на число - период времени, за который выпало указанное количество осадков.
R24 - Количество осадков - Количество выпавших осадков за 24 часа, мм.
S - Снежный покров - Высота снежного покрова, см. При наведении курсора мыши на число - состояние снежного покрова и степень покрытия местности в баллах.